This is the latest recevied weather packets stored in our database for station/object PD2BVG. If no packets are shown the sender has not sent any weather packets the latest 1 day(s).
| Time | Temp. | Humidity | Pressure | Rain* | Wind** | Luminosity | Snow |
|---|---|---|---|---|---|---|---|
| 1777977005 | 14.44° C | 71% | 1011.8 hPa | 0 mm | 2.68 m/s, 20° | 649 W/m² | - |
| 1777976946 | 14.44° C | 71% | 1011.9 hPa | 0 mm | 3.13 m/s, 351° | 670 W/m² | - |
| 1777976886 | 14.44° C | 71% | 1011.9 hPa | 0 mm | 3.13 m/s, 345° | 716 W/m² | - |
| 1777976822 | 14.44° C | 70% | 1011.8 hPa | 0 mm | 3.13 m/s, 0° | 718 W/m² | - |
| 1777976763 | 14.44° C | 70% | 1011.8 hPa | 0 mm | 1.79 m/s, 3° | 696 W/m² | - |
| 1777976703 | 14.44° C | 69% | 1011.9 hPa | 0 mm | 2.24 m/s, 333° | 696 W/m² | - |
| 1777976643 | 14.44° C | 69% | 1011.8 hPa | 0 mm | 3.13 m/s, 0° | 686 W/m² | - |
| 1777976583 | 14.44° C | 70% | 1011.8 hPa | 0 mm | 2.68 m/s, 355° | 679 W/m² | - |
| 1777976522 | 14.44° C | 70% | 1011.8 hPa | 0 mm | 2.24 m/s, 358° | 667 W/m² | - |
| 1777976463 | 14.44° C | 71% | 1011.8 hPa | 0 mm | 2.68 m/s, 1° | 679 W/m² | - |
| 1777976401 | 14.44° C | 70% | 1011.9 hPa | 0 mm | 3.58 m/s, 0° | 663 W/m² | - |
| 1777976342 | 14.44° C | 70% | 1011.9 hPa | 0 mm | 3.58 m/s, 44° | 614 W/m² | - |
| 1777976282 | 14.44° C | 70% | 1011.9 hPa | 0 mm | 1.79 m/s, 10° | 598 W/m² | - |
| 1777976222 | 13.89° C | 70% | 1011.9 hPa | 0 mm | 1.79 m/s, 1° | 598 W/m² | - |
| 1777976162 | 13.89° C | 69% | 1011.9 hPa | 0 mm | 2.68 m/s, 0° | 617 W/m² | - |
| 1777976103 | 14.44° C | 69% | 1012 hPa | 0 mm | 3.13 m/s, 347° | 543 W/m² | - |
| 1777976043 | 14.44° C | 69% | 1012 hPa | 0 mm | 2.68 m/s, 340° | 600 W/m² | - |
| 1777975982 | 14.44° C | 68% | 1012.1 hPa | 0 mm | 3.13 m/s, 20° | 600 W/m² | - |
| 1777975922 | 14.44° C | 68% | 1012 hPa | 0 mm | 3.13 m/s, 0° | 621 W/m² | - |
| 1777975863 | 14.44° C | 69% | 1012 hPa | 0 mm | 3.13 m/s, 45° | 605 W/m² | - |
| 1777975802 | 14.44° C | 69% | 1012 hPa | 0 mm | 2.68 m/s, 0° | 659 W/m² | - |
| 1777975743 | 14.44° C | 68% | 1012 hPa | 0 mm | 2.68 m/s, 3° | 689 W/m² | - |
| 1777975684 | 14.44° C | 69% | 1012 hPa | 0 mm | 2.68 m/s, 333° | 702 W/m² | - |
| 1777975625 | 14.44° C | 70% | 1012 hPa | 0 mm | 2.24 m/s, 333° | 696 W/m² | - |
| 1777975564 | 14.44° C | 69% | 1011.9 hPa | 0 mm | 2.24 m/s, 16° | 705 W/m² | - |
* Rain latest hour (hover to see other rain measurements)
** Current wind speed in m/s (hover to see current wind gust speed)